This is the latest recevied weather packets stored in our database for station/object F5MDY-10. If no packets are shown the sender has not sent any weather packets the latest 10 day(s).
| Time | Temp. | Humidity | Pressure | Rain* | Wind** | Luminosity | Snow |
|---|---|---|---|---|---|---|---|
| 1788091280 | 24.44° C | 51% | 991.9 hPa | - | - | - | - |
| 1788089360 | 24.44° C | 51% | 992.3 hPa | - | - | - | - |
| 1788087439 | 24.44° C | 52% | 992.8 hPa | - | - | - | - |
| 1788085519 | 23.89° C | 52% | 993.2 hPa | - | - | - | - |
| 1788083599 | 23.89° C | 53% | 993.6 hPa | - | - | - | - |
| 1788081679 | 23.89° C | 53% | 993.9 hPa | - | - | - | - |
| 1788079759 | 23.33° C | 54% | 994.1 hPa | - | - | - | - |
| 1788077839 | 23.33° C | 53% | 994.2 hPa | - | - | - | - |
| 1788075919 | 23.33° C | 54% | 994.4 hPa | - | - | - | - |
| 1788073999 | 22.78° C | 55% | 994.4 hPa | - | - | - | - |
| 1788072079 | 22.78° C | 53% | 994.4 hPa | - | - | - | - |
| 1788070158 | 23.33° C | 52% | 994.4 hPa | - | - | - | - |
| 1788068238 | 23.33° C | 51% | 994.2 hPa | - | - | - | - |
| 1788066318 | 23.33° C | 50% | 994.3 hPa | - | - | - | - |
| 1788064398 | 23.33° C | 49% | 994.2 hPa | - | - | - | - |
| 1788062478 | 23.33° C | 48% | 994.3 hPa | - | - | - | - |
| 1788060558 | 23.33° C | 48% | 994.3 hPa | - | - | - | - |
| 1788058638 | 23.33° C | 47% | 994.4 hPa | - | - | - | - |
| 1788056718 | 23.89° C | 46% | 994.4 hPa | - | - | - | - |
| 1788054798 | 23.89° C | 45% | 994.3 hPa | - | - | - | - |
| 1788052877 | 23.89° C | 42% | 994.1 hPa | - | - | - | - |
| 1788050957 | 24.44° C | 40% | 994.1 hPa | - | - | - | - |
| 1788049037 | 25° C | 40% | 994.3 hPa | - | - | - | - |
| 1788047117 | 25° C | 39% | 994.3 hPa | - | - | - | - |
| 1788045197 | 25° C | 39% | 994.2 hPa | - | - | - | - |
* Rain since midnight (hover to see other rain measurements)
** Current wind speed in m/s (hover to see current wind gust speed)